Home   Weather   Sfax   Past weeks

Flag for Tunisia Past Weather in Sfax, Tunisia — Yesterday and Last 2 Weeks

Now
61 °F

Passing clouds.


Feels Like: 61 °F
Forecast: 59 / 73 °F
Wind: 5 mph from North

Location: Sfax El-Maou

Current Time: Apr 28, 2017 at 5:37:08 am

Latest Report: Apr 28, 2017 at 5:00 am


Visibility: N/A

Pressure: 29.83 "Hg

Humidity: 94%

Dew Point: 59 °F

Location of SfaxLocation

Past Weather in Sfax — Graph

°F

Sfax Temperature Yesterday

Maximum temperature yesterday: 73 °F (at 1:00 pm)
Minimum temperature yesterday: 57 °F (at 6:00 am)
Average temperature yesterday: 67 °F

High & Low Weather Summary for the Past Weeks

 TemperatureHumidityPressure
High82 °F (Apr 15, 12:00 pm)94% (Apr 14, 12:00 am)30.33 "Hg (Apr 14, 12:00 am)
Low45 °F (Apr 23, 6:00 am)27% (Apr 17, 12:00 pm)29.83 "Hg (Apr 28, 3:00 am)
Average64 °F66%30.02 "Hg
* Reported Apr 13 6:00 am — Apr 28 4:00 am, Sfax, Weather by CustomWeather, © 2017

Note: Actual official high and low records may vary slightly from our data, if they occured in-between our weather recording intervals... More about our weather records

Advertising

Sfax Weather History for the Previous 24 Hours

Scroll right to see more
 ConditionsComfort  
Time TempWeatherWind HumidityBarometerVisibility
4:00 am
Fri, Apr 28
61 °FPassing clouds.2 mph94%29.83 "HgN/A
3:00 am63 °FPassing clouds.3 mph88%29.83 "HgN/A
2:00 am63 °FPassing clouds.2 mph88%29.86 "HgN/A
1:00 am64 °FPassing clouds.5 mph88%29.86 "HgN/A
12:00 am64 °FPassing clouds.7 mph88%29.89 "HgN/A
11:00 pm
Thu, Apr 27
64 °FPassing clouds.7 mph94%29.89 "HgN/A
10:00 pm64 °FPassing clouds.7 mph94%29.89 "HgN/A
9:00 pm64 °FPassing clouds.7 mph94%29.89 "HgN/A
8:00 pm66 °FPassing clouds.7 mph88%29.86 "HgN/A
7:00 pm66 °FPassing clouds.7 mph83%29.86 "HgN/A
6:00 pm70 °FPassing clouds.7 mph73%29.86 "HgN/A
5:00 pm72 °FPassing clouds.7 mph65%29.86 "HgN/A
4:00 pm70 °FPassing clouds.8 mph69%29.86 "HgN/A
3:00 pm73 °FPassing clouds.7 mph61%29.89 "HgN/A
2:00 pm73 °FPassing clouds.9 mph61%29.89 "HgN/A
1:00 pm73 °FPassing clouds.9 mph61%29.92 "HgN/A
12:00 pm72 °FPassing clouds.9 mph61%29.92 "HgN/A
11:00 am72 °FPassing clouds.8 mph65%29.95 "HgN/A
10:00 am72 °FPassing clouds.9 mph65%29.92 "HgN/A
9:00 am70 °FClear.8 mph69%29.92 "Hg5 mi
8:00 am68 °FClear.3 mph73%29.92 "Hg5 mi
7:00 am61 °FClear.8 mph88%29.92 "Hg5 mi
6:00 am57 °FClear.3 mph94%29.89 "Hg5 mi
Weather by CustomWeather, © 2017

See weather overviewHow to use our weather pages